EHI
0 0 1 2 2 1 0 0 0 0 0 0 0 0 0 0 0 0 0 0 0 0 0 0 0 0 0 0 0 0 0 0 0 0 0 0 0 0 0 0 0 0 0
0 0 0 1 1 0 0 0 0 0 0 0 0 0 0 0 0 0 0 0 0 0 0 0 0 0 0 0 0 0 0 0 0 0 0 0 0 0 0 0 0 0 0
0 0 0 0 0 0 0 0 0 0 0 0 0 0 0 0 0 0 0 0 0 0 0 0 0 0 0 0 0 0 0 0 0 0 0 0 0 0 0 0 0 0 0
0 0 0 0 0 0 0 0 0 0 0 0 0 0 0 0 0 0 0 0 0 0 0 0 0 0 0 0 0 0 0 0 0 0 0 0 0 0 0 0 0 0 0
0 0 0 0 1 0 0 0 0 0 0 0 0 0 0 0 0 0 0 0 0 0 0 0 0 0 0 0 0 0 0 0 0 0 0 0 0 0 0 0 0 0 0
0 0 0 0 0 0 0 0 0 0 0 0 0 0 0 0 0 0 0 0 0 0 0 0 0 0 0 0 0 0 0 0 0 0 0 0 0 0 0 0 0 0 0
0 0 0 0 0 0 0 0 0 0 0 0 0 0 0 0 0 0 0 0 0 0 0 0 0 0 0 0 0 0 0 0 0 0 0 0 0 0 0 0 0 0 0
0 0 0 0 0 0 0 0 0 0 0 0 0 0 0 0 0 0 0 0 0 0 0 0 0 0 0 0 0 0 0 0 0 0 0 0 0 0 0 0 0 0 0
0 0 0 0 0 0 0 0 0 0 0 0 0 0 0 0 0 0 0 0 0 0 0 0 0 0 0 0 0 0 0 0 0 0 0 0 0 0 0 0 0 0 0
0 0 0 0 0 0 0 0 0 0 0 0 0 0 0 0 0 0 0 0 0 0 0 0 0 0 0 0 0 0 0 0 0 0 0 0 0 0 0 0 0 0 0
0 0 0 0 0 0 0 0 0 0 0 0 0 0 0 0 0 0 0 0 0 0 0 0 0 0 0 0 0 0 0 0 0 0 0 0 0 0 0 0 0 0 0
0 0 0 0 0 0 0 0 0 0 0 0 0 0 0 0 0 0 0 0 0 0 0 0 0 0 0 0 0 0 0 0 0 0 0 0 0 0 0 0 0 0 0
0 0 0 0 0 0 0 0 0 0 0 0 0 0 0 0 0 0 0 0 0 0 0 0 0 0 0 0 0 0 0 0 0 0 0 0 0 0 0 0 0 0 0
0 0 0 0 0 0 0 0 0 0 0 0 0 0 0 0 0 0 0 0 0 0 0 0 0 0 0 0 0 0 0 0 0 0 0 0 0 0 0 0 0 0 0
0 0 0 0 0 0 0 0 0 0 0 0 0 0 0 0 0 0 0 0 0 0 0 0 0 0 0 0 0 0 0 0 0 0 0 0 0 0 0 0 0 0 0
0 0 0 0 0 0 0 0 0 0 0 0 0 0 0 0 0 0 0 0 0 0 0 0 0 0 0 0 0 0 0 0 0 0 0 0 0 0 0 0 0 0 0
0 0 0 0 0 0 0 0 0 0 0 0 0 0 0 0 0 0 0 0 0 0 0 0 0 0 0 0 0 0 0 0 0 0 0 0 0 0 0 0 0 0 0
0 0 0 0 0 0 0 0 0 0 0 0 0 0 0 0 0 0 0 0 0 0 0 0 0 0 0 0 0 0 0 0 0 0 0 0 0 0 0 0 0 0 0
0 0 0 0 0 0 0 0 0 0 0 0 0 0 0 0 0 0 0 0 0 0 0 0 0 0 0 0 0 0 0 0 0 0 0 0 0 0 0 0 0 0 0
0 0 0 0 0 0 0 0 0 0 0 0 0 0 0 0 0 0 0 0 0 0 0 0 0 0 0 0 0 0 0 0 0 0 0 0 0 0 0 0 0 0 0
0 0 0 0 0 0 0 0 0 0 0 0 0 0 0 0 0 0 0 0 0 0 0 0 0 0 0 0 0 0 0 0 0 0 0 0 0 0 0 0 0 0 0
0 0 0 0 0 0 0 0 0 0 0 0 0 0 0 0 0 0 0 0 0 0 0 0 0 0 0 0 0 0 0 0 0 0 0 0 0 0 0 0 0 0 0
0 0 0 0 0 0 0 0 0 0 0 0 0 0 0 0 0 0 0 0 0 0 0 0 0 0 0 0 0 0 0 0 0 0 0 0 0 0 0 0 0 0 0
0 0 0 0 0 0 0 0 0 0 0 0 0 0 0 0 0 0 0 0 0 0 0 0 0 0 0 0 0 0 0 0 0 0 0 0 0 0 0 0 0 0 0
0 0 0 0 0 0 0 0 0 0 0 0 0 0 0 0 0 0 0 0 0 0 0 0 0 0 0 0 0 0 0 0 0 0 0 0 0 0 0 0 0 0 0
0 0 0 0 0 0 0 0 0 0 0 0 0 0 0 0 0 0 0 0 0 0 0 0 0 0 0 0 0 0 0 0 0 0 0 0 0 0 0 0 0 0 0
Wind_Speed
5 5 13 16 16 15 14 12 10 8 7 7 8 10 11 10 9 8 7 6 5 5 5 4 4 5 6 7 7 7 6 6 6 6 6 6 6 6 5 2 1 2 4
7 8 13 16 16 15 14 12 10 8 7 7 8 10 10 9 8 7 6 5 4 4 5 7 7 8 8 8 7 5 4 4 4 5 6 6 7 7 6 5 3 2 4
7 9 11 15 16 15 14 12 10 8 7 7 9 9 9 8 7 6 5 4 4 4 4 5 6 7 7 7 5 4 3 3 4 5 6 3 5 8 7 6 6 5 6
9 9 9 14 16 15 14 12 10 9 8 7 8 9 8 8 7 5 4 4 4 4 4 4 4 4 5 4 4 3 4 4 4 4 2 2 3 7 8 5 6 7 6
8 7 9 15 16 15 14 13 11 9 8 8 8 8 8 7 7 6 5 4 4 4 4 3 3 3 3 3 3 3 3 4 3 2 1 2 2 7 9 8 6 7 7
7 6 8 14 15 15 14 13 11 10 9 8 7 7 7 6 6 6 6 5 4 3 2 2 1 0 1 2 3 4 4 4 2 1 2 3 3 7 9 9 9 8 8
7 6 7 14 14 15 14 13 12 10 9 8 8 7 6 5 4 5 7 6 5 3 1 1 2 2 3 4 5 6 6 5 2 2 3 4 5 10 10 10 10 10 11
8 6 6 13 12 13 14 13 12 10 9 9 8 7 6 4 3 4 7 7 5 3 2 3 5 6 6 7 7 8 8 6 5 3 4 4 8 11 10 10 11 12 12
6 6 5 6 8 11 12 12 12 10 9 8 8 7 4 2 3 2 6 6 5 4 4 5 7 7 8 8 9 9 8 7 4 3 4 4 9 11 12 12 12 13 14
4 5 5 5 5 6 8 11 11 10 8 8 7 5 4 1 1 1 2 4 4 5 6 7 8 8 8 9 9 9 8 6 3 4 3 5 11 12 13 13 12 13 13
5 5 5 5 5 6 6 8 9 9 8 7 5 5 4 1 1 2 2 3 4 6 7 8 8 9 8 7 8 9 6 3 3 3 3 8 11 11 12 12 12 12 12
8 8 7 7 6 6 6 5 4 4 5 4 3 3 2 1 0 1 3 4 4 5 6 7 7 7 6 4 6 7 3 4 3 3 4 10 10 10 10 11 12 12 12
8 8 9 9 8 7 5 4 3 3 3 4 4 4 2 2 0 1 1 2 3 3 3 4 4 4 4 4 4 4 5 4 3 3 5 10 9 8 9 10 11 13 14
6 8 9 10 9 8 6 5 4 4 3 3 4 4 3 2 1 1 1 2 2 2 2 3 3 4 5 5 5 5 5 3 3 3 4 10 11 12 13 14 15 15 15
8 9 9 10 11 9 7 5 5 5 4 4 4 4 4 3 2 3 2 3 3 3 3 4 4 5 5 5 4 5 5 5 4 4 3 11 14 15 16 16 16 16 15
9 9 9 11 11 10 9 7 5 5 4 4 4 4 5 4 4 4 4 4 4 4 4 4 4 4 3 3 4 4 4 4 4 4 4 7 15 16 17 17 16 16 15
8 7 8 11 11 12 10 9 5 5 5 4 4 5 6 6 6 6 5 4 4 3 4 4 4 4 4 5 5 4 3 4 4 4 4 4 6 13 16 17 17 16 16
7 6 7 8 11 11 9 7 5 5 5 5 5 6 8 8 8 6 5 5 4 3 3 4 4 4 4 5 4 4 3 3 3 3 4 4 4 5 9 16 18 17 16
6 6 6 7 10 10 9 8 7 6 6 5 5 6 8 9 8 7 6 5 4 4 4 4 5 4 4 6 5 4 3 3 1 2 3 4 3 4 4 10 16 17 17
4 5 5 7 9 11 10 9 8 8 6 5 6 7 9 8 9 8 6 6 5 5 5 4 5 5 4 4 5 6 3 3 1 1 2 2 2 3 4 5 6 10 16
4 5 7 9 10 11 10 8 8 7 6 6 6 9 9 9 9 8 7 6 5 6 5 5 3 5 5 5 4 6 5 2 2 0 1 1 1 3 6 7 7 6 6
5 6 7 9 10 9 7 6 5 7 6 6 6 8 8 9 8 8 7 6 5 5 6 6 5 3 4 5 4 3 6 7 5 3 3 2 4 5 8 10 8 7 6
6 7 8 9 9 9 10 10 11 7 6 5 6 6 7 8 9 8 8 6 6 5 5 5 5 4 3 3 3 3 3 4 5 5 5 4 4 4 5 6 8 8 9
7 6 8 8 9 10 11 14 16 10 8 6 6 6 7 7 8 8 7 7 6 5 5 5 4 3 3 2 2 2 1 3 3 6 4 3 4 6 7 8 9 9 9
8 8 8 9 9 9 8 12 13 10 9 9 8 9 8 6 7 7 7 6 6 5 5 5 4 4 2 2 1 1 2 2 2 3 7 6 6 4 5 8 9 7 7
8 8 9 11 9 8 9 9 14 17 16 14 10 9 6 5 5 7 7 6 5 4 4 4 3 3 2 1 0 1 1 1 2 3 6 10 11 6 8 8 7 6 6
Wind_Direction
213 193 179 158 151 147 144 141 137 135 139 146 150 145 136 128 118 108 99 90 76 54 47 55 66 92 108 114 106 96 83 63 41 30 21 13 359 341 328 322 330 324 304
166 172 177 158 153 150 148 144 139 137 140 148 151 145 136 126 117 107 100 94 79 58 49 53 63 70 75 80 83 79 71 51 25 20 28 25 1 342 320 288 272 267 291
149 165 170 158 155 153 151 147 144 142 143 147 149 142 134 127 120 115 109 93 72 61 52 50 54 57 58 57 55 45 27 7 2 16 30 23 350 342 324 280 254 261 274
154 160 160 160 158 156 154 152 151 151 150 151 150 146 139 136 137 135 123 96 73 70 68 62 56 53 49 39 26 5 348 344 6 20 36 360 340 329 324 294 247 248 266
152 154 160 162 162 160 158 158 158 157 157 157 154 152 150 154 160 159 148 117 93 90 90 85 72 56 42 25 2 338 329 330 345 18 341 326 317 313 313 301 279 260 268
148 152 163 164 166 165 163 163 165 164 165 166 167 167 170 182 190 184 169 151 138 130 119 108 98 15 322 313 306 303 306 313 331 300 291 291 289 300 298 291 288 279 267
152 157 167 168 171 170 168 169 171 173 174 175 179 185 195 212 219 208 183 173 173 178 192 299 320 315 307 302 301 305 315 325 310 269 275 276 278 293 291 282 280 280 276
160 163 170 177 176 176 174 173 177 179 181 184 190 200 208 219 262 231 185 182 193 213 256 302 321 324 320 314 312 316 324 327 316 292 277 273 283 295 291 283 277 276 274
165 167 175 179 179 177 174 176 181 184 188 192 196 203 201 209 295 228 181 193 215 246 282 308 322 323 321 320 319 320 320 317 313 288 285 279 292 297 293 286 279 272 269
176 182 181 180 173 171 172 177 181 184 187 192 194 181 162 163 359 48 175 216 245 272 297 313 322 325 329 329 328 329 330 327 323 308 298 300 308 308 304 301 297 289 281
195 197 189 184 177 168 169 180 180 183 185 185 182 171 158 118 25 11 333 293 281 290 309 322 334 345 354 351 351 353 356 357 339 327 314 324 329 325 323 325 327 323 316
203 200 195 192 183 172 179 173 171 172 173 166 154 157 150 149 250 330 328 325 321 335 345 348 359 12 17 6 6 15 15 9 9 348 342 349 348 343 343 347 349 350 349
206 200 198 196 187 181 179 166 166 162 162 164 163 164 155 148 114 13 19 13 25 35 29 17 24 29 31 27 23 24 23 24 13 356 351 4 7 7 11 16 22 24 25
208 208 199 194 191 189 181 174 170 167 166 170 171 166 157 154 133 83 65 50 49 54 59 51 51 45 41 35 31 30 26 17 5 354 0 26 37 40 42 41 36 31 28
219 214 200 191 193 189 183 179 177 177 175 174 166 170 166 154 136 108 86 71 60 59 63 59 56 50 39 29 25 28 23 10 5 9 14 40 47 45 43 38 31 26 21
230 221 199 194 191 183 184 182 178 174 165 160 164 167 159 144 130 112 94 76 61 58 62 64 61 52 38 21 18 18 22 11 13 27 36 42 49 46 41 34 26 20 14
235 219 199 195 185 183 183 179 169 160 152 153 151 146 137 128 121 110 97 80 65 63 67 62 55 47 33 18 7 9 22 18 22 37 45 48 45 41 37 31 21 13 7
230 211 199 189 180 179 171 157 144 139 136 133 129 123 118 115 115 109 99 85 72 64 63 61 38 38 24 9 349 344 8 8 19 41 48 55 56 46 29 26 17 7 359
215 197 182 173 166 159 142 128 118 114 109 111 112 109 107 108 110 105 96 87 78 66 51 55 47 40 23 358 336 331 353 350 0 51 52 58 62 55 33 19 14 360 351
191 171 155 144 142 135 125 116 108 98 94 92 96 102 106 106 105 101 93 83 77 70 53 48 55 43 30 350 333 329 332 341 2 65 46 48 48 39 30 20 8 347 341
169 155 146 141 143 142 140 134 126 115 107 94 90 96 101 104 101 97 96 84 75 74 64 49 52 40 22 1 3 339 334 353 353 117 21 334 358 9 17 8 348 329 319
176 162 149 150 151 149 140 124 115 114 104 93 92 89 94 100 99 96 95 90 82 81 65 50 49 51 24 25 34 5 345 338 340 342 341 347 5 10 3 344 322 311 306
183 172 159 153 145 135 129 119 113 103 101 100 97 90 86 93 92 95 93 91 81 80 75 63 56 66 34 13 41 60 16 309 309 312 318 338 354 355 334 314 304 303 302
182 161 148 144 140 141 142 142 143 141 134 127 123 112 97 89 91 90 89 87 82 77 75 66 65 67 71 30 4 32 223 235 291 309 303 309 324 317 301 307 303 294 291
157 150 142 136 138 143 144 146 135 123 117 121 118 110 99 85 83 86 85 83 79 76 76 69 65 62 78 90 20 328 318 295 243 270 293 305 304 283 291 293 290 287 285
144 142 141 139 138 136 134 136 135 132 133 133 127 118 105 94 82 80 82 79 78 75 72 69 66 63 68 85 157 237 237 268 284 276 286 304 305 297 287 282 280 281 285